Regional Weather Roundup
Issued by NWS

Home | Current Version | Previous Version | Graphics & Text | Print | Product List | Glossary On
Versions: 1 2 3 4 5 6 7 8 9 10 11 12 13 14 15 16 17 18 19 20 21 22 23 24 25 26 27 28 29 30 31 32 33 34 35 36 37 38 39 40 41 42 43 44 45 46 47 48 49 50
476
ASUS44 KJAN 211103
RWRMS

MISSISSIPPI HOURLY WEATHER ROUNDUP
NATIONAL WEATHER SERVICE JACKSON MS
600 AM CDT THU AUG 21 2014

NOTE: "FAIR: INDICATES FEW OR NO CLOUDS BELOW 12,000 FEET WITH NO
SIGNIFICANT WEATHER AND/OR OBSTRUCTIONS TO VISIBILITY.

MSZ001>002-007>008-010>013-018>021-025>028-034>036-211200-
NORTHWEST MISSISSIPPI

CITY           SKY/WX    TMP DP  RH WIND       PRES   REMARKS
CLARKSDALE     FAIR      73  73 100 CALM      30.10R
CLEVELAND      FAIR      73  72  99 S3        30.08R
GREENWOOD      CLEAR     73  71  93 SW5       30.10R
GREENVILLE     CLEAR     73  70  90 S6        30.09R
GRENADA        FAIR      70  70 100 CALM      30.11R
OLIVE BRANCH   CLEAR     72  72 100 S5        30.09R
OXFORD         FAIR      73  72  94 SW5       30.12R
TUNICA         SUNNY     72  70  94 S8        30.09R
$$

MSZ003>006-009-014>017-022>024-029>033-037>039-211200-
NORTHEAST MISSISSIPPI

CITY           SKY/WX    TMP DP  RH WIND       PRES   REMARKS
BELMONT        FAIR      71  71  98 CALM      30.11R
COLUMBUS AFB   CLEAR     73  73  99 SE2       30.11R
CORINTH        FAIR      72  70  94 CALM      30.10R
GOLDN TRIANGLE CLEAR     72  68  88 CALM      30.11R
STARKVILLE     FAIR      70  68  94 CALM      30.11R
TUPELO         CLEAR     75  71  87 CALM      30.10R
$$

MSZ040-058-211200-
CENTRAL MISSISSIPPI

CITY           SKY/WX    TMP DP  RH WIND       PRES   REMARKS
JACKSON INTL   CLEAR     74  71  91 CALM      30.12R
JACKSON HAWKNS CLEAR     75  70  84 CALM      30.12R
MERIDIAN KEY   CLEAR     72  71  97 CALM      30.13R
MERIDIAN NAS   CLEAR     75  71  87 W6        30.12R
RAYMOND        FAIR      72  66  83 CALM      30.11R HAZE
VICKSBURG      PTCLDY    71  69  93 CALM      30.10R
$$

MSZ059>079-211200-
SOUTH MISSISSIPPI

CITY           SKY/WX    TMP DP  RH WIND       PRES   REMARKS
BROOKHAVEN     FAIR      72  72 100 CALM      30.14R
COLUMBIA       FAIR      70  70 100 MISG      30.11R FOG
HATTIESBURG    CLEAR     74  72  93 CALM      30.13R
MCCOMB         PTCLDY    71  69  93 CALM      30.12R
NATCHEZ        CLOUDY    75  72  88 S5        30.11R
PINE BELT      CLEAR     72  70  94 CALM      30.14R
$$

MSZ080>082-211200-
COASTAL MISSISSIPPI

CITY           SKY/WX    TMP DP  RH WIND       PRES   REMARKS
BILOXI         PTCLDY    79  77  91 CALM      30.11R
PASCAGOULA     CLEAR     74  73  97 CALM      30.11R
GULFPORT       PTCLDY    77  75  93 CALM      30.10R
$$



USA.gov is the U.S. government's official web portal to all federal, state and local government web resources and services.